PD1VW-10 Weather Reports


Display with metric or nautical units.
time (UTC)temp
F
wind
direction
speed
MPH
gust
MPH
rain 1hr
in
rain 24hr
in
rain mn
in
humidity
%
barometer
mb
20260504151045 57 40 11.0 14.0 0.00 0.11 0.11 90 1014.8
20260504141039 59 28 9.0 15.0 0.00 0.11 0.11 90 1015.1
20260504081030 56 48 0.0 1.0 0.00 0.12 0.00 99 1014.9
20260504045034 54 0.0 0.0 0.00 0.13 0.00 99 1013.3
20260504044031 54 0.0 0.0 0.00 0.13 0.00 99 1013.1
20260504043029 54 0.0 0.0 0.00 0.13 0.00 99 1013.1
20260504042026 54 0.0 0.0 0.00 0.13 0.00 99 1013.2
20260504041023 54 0.0 0.0 0.00 0.14 0.00 99 1013.1
20260504040021 54 266 2.0 3.0 0.00 0.16 0.00 99 1013.1
20260504035018 54 266 2.0 3.0 0.00 0.18 0.00 99 1013.1
20260504034016 54 0.0 0.0 0.00 0.18 0.00 99 1013.1
20260504033043 54 0.0 0.0 0.00 0.18 0.00 99 1013.1
20260504032121 54 0.0 0.0 0.00 0.18 0.00 99 1013.2
20260504031038 53 0.0 0.0 0.00 0.18 0.00 99 1013.4
20260504030055 53 0.0 0.0 0.00 0.18 0.00 99 1013.1
20260504025032 53 0.0 0.0 0.00 0.19 0.00 99 1013.1
20260504024050 53 0.0 0.0 0.00 0.19 0.00 99 1013.2
20260504023027 53 0.0 0.0 0.00 0.19 0.00 99 1013.1
20260504022024 53 0.0 0.0 0.00 0.19 0.00 99 1013.1
20260504021042 53 0.0 0.0 0.00 0.19 0.00 99 1013.1
20260504020019 53 0.0 0.0 0.00 0.19 0.00 99 1012.9
20260504015016 53 0.0 0.0 0.00 0.19 0.00 99 1013.0
20260504014044 52 0.0 0.0 0.00 0.19 0.00 99 1013.2
20260504013041 52 0.0 0.0 0.00 0.19 0.00 99 1013.1
20260504012038 53 0.0 0.0 0.00 0.19 0.00 99 1013.3
20260504011036 53 0.0 0.0 0.00 0.19 0.00 99 1013.3
20260504010033 53 0.0 0.0 0.00 0.19 0.00 99 1013.1
20260504005051 53 0.0 0.0 0.00 0.19 0.00 98 1013.2
20260504004027 53 0.0 0.0 0.00 0.19 0.00 98 1012.8
20260504003025 54 0.0 0.0 0.00 0.19 0.00 98 1012.8
20260504002022 54 0.0 0.0 0.00 0.19 0.00 98 1012.9
20260504001019 54 0.0 0.0 0.00 0.19 0.00 98 1012.9
20260504000037 54 0.0 0.0 0.00 0.19 0.00 98 1013.2
20260503235044 53 0.0 0.0 0.00 0.19 0.00 98 1013.0
20260503234041 54 0.0 0.0 0.00 0.19 0.00 98 1013.0
20260503233038 54 0.0 0.0 0.00 0.20 0.00 98 1013.0
20260503232035 53 0.0 0.0 0.00 0.23 0.00 97 1013.0
20260503231033 52 0.0 0.0 0.00 0.25 0.00 97 1013.0
20260503230030 52 266 3.0 3.0 0.00 0.26 0.00 97 1012.7
20260503225027 51 266 1.0 2.0 0.00 0.29 0.00 96 1012.8
20260503224025 54 0.0 0.0 0.00 0.30 0.00 95 1012.6
20260503223022 55 0.0 0.0 0.00 0.30 0.00 95 1012.6
20260503222019 54 0.0 0.0 0.00 0.30 0.00 94 1012.6
20260503221017 55 0.0 0.0 0.00 0.30 0.00 94 1012.6
20260503220044 55 0.0 0.0 0.00 0.30 0.30 94 1012.7
20260503215041 56 0.0 0.0 0.00 0.30 0.30 94 1012.5
20260503214039 56 266 1.0 1.0 0.00 0.30 0.30 94 1012.7
20260503213036 57 266 1.0 2.0 0.00 0.30 0.30 93 1012.8
20260503212033 57 266 1.0 2.0 0.00 0.30 0.30 93 1012.7
20260503211051 57 0.0 0.0 0.00 0.30 0.30 93 1012.5
20260503210028 57 0.0 0.0 0.00 0.30 0.30 92 1012.5
20260503205026 57 271 2.0 2.0 0.00 0.30 0.30 92 1012.4
20260503204023 57 266 1.0 1.0 0.00 0.30 0.30 92 1012.4
20260503203020 58 265 0.0 1.0 0.00 0.30 0.30 92 1012.5
20260503202018 58 265 1.0 1.0 0.00 0.30 0.30 91 1012.3
20260503201015 58 261 1.0 1.0 0.00 0.30 0.30 91 1012.4
20260503200042 58 260 2.0 2.0 0.00 0.30 0.30 91 1012.4
20260503195040 58 257 1.0 1.0 0.00 0.30 0.30 91 1012.3
20260503194117 58 262 1.0 1.0 0.00 0.30 0.30 91 1012.2
20260503193034 58 258 1.0 1.0 0.00 0.30 0.30 91 1012.2
20260503192112 58 254 1.0 1.0 0.00 0.30 0.30 90 1012.0
20260503191029 58 255 0.0 1.0 0.00 0.30 0.30 90 1011.9
20260503190046 58 259 1.0 2.0 0.00 0.30 0.30 90 1011.9
20260503185044 58 256 1.0 2.0 0.00 0.30 0.30 90 1011.8
20260503184021 58 260 2.0 2.0 0.00 0.30 0.30 89 1011.6
20260503183018 59 243 3.0 3.0 0.00 0.30 0.30 87 1011.5
20260503182016 60 279 4.0 4.0 0.00 0.30 0.30 86 1011.4
20260503181203 60 270 4.0 6.0 0.00 0.30 0.30 86 1011.2
20260503180040 60 249 4.0 6.0 0.00 0.30 0.30 87 1011.2
20260503175038 60 242 4.0 4.0 0.00 0.30 0.30 86 1011.3
20260503174035 59 211 3.0 4.0 0.00 0.30 0.30 87 1011.2
20260503173032 60 252 4.0 8.0 0.00 0.30 0.30 87 1011.2
20260503172030 60 228 4.0 6.0 0.00 0.30 0.30 86 1011.2
20260503171027 61 265 4.0 6.0 0.00 0.30 0.30 85 1011.0